User: anonymous   Login
Location: Unspecified
(0.0000°N, 0.0000°E)
Time: 18:03:24
(UTC+00:00)
Language:

TBA - TO BE ASSIGNED - Orbit

View from above orbital plane
View from above orbital plane
View from above satellite
View from above satellite

Ground track
Ground track

The orbit is defined by the following mean orbital elements,

1 69039U          26145.50003470 +.00000000 +00000-0 -17230-1 0 00002
2 69039  97.2850   0.2891 0001651  90.0778 151.8828 15.71072319    03
Epoch (UTC): 25 May 2026 12:00:02
Eccentricity: 0.0001651
inclination: 97.2850°
perigee height: 355 km
apogee height: 357 km
right ascension of ascending node: 0.2891°
argument of perigee: 90.0778°
revolutions per day: 15.71072319
mean anomaly at epoch: 151.8828°

The dashed part of the orbit path shows where the satellite is in the earth's shadow,  

DLR